TimeMST,TemperatureF,Dew PointF,Humidity,Sea Level PressureIn,VisibilityMPH,Wind Direction,Wind SpeedMPH,Gust SpeedMPH,PrecipitationIn,Events,Conditions,WindDirDegrees,DateUTC
12:15 AM,24.8,21.2,86,29.58,7.0,South,9.2,-,N/A,,Overcast,190,2014-02-15 07:15:00
12:35 AM,26.6,21.2,80,29.56,9.0,South,4.6,-,N/A,,Overcast,190,2014-02-15 07:35:00
12:55 AM,26.6,23.0,86,29.55,10.0,South,8.1,-,N/A,,Overcast,170,2014-02-15 07:55:00
1:15 AM,26.6,23.0,86,29.54,10.0,South,6.9,-,N/A,,Overcast,180,2014-02-15 08:15:00
1:35 AM,26.6,23.0,86,29.55,10.0,Calm,Calm,-,N/A,,Overcast,0,2014-02-15 08:35:00
1:55 AM,26.6,23.0,86,29.54,10.0,SE,4.6,-,N/A,,Overcast,140,2014-02-15 08:55:00
2:15 AM,24.8,21.2,86,29.53,10.0,South,8.1,-,N/A,,Scattered Clouds,180,2014-02-15 09:15:00
2:35 AM,24.8,21.2,86,29.53,10.0,SSW,6.9,-,N/A,,Clear,210,2014-02-15 09:35:00
2:55 AM,21.2,17.6,86,29.52,10.0,ENE,4.6,-,N/A,,Clear,70,2014-02-15 09:55:00
3:15 AM,23.0,19.4,86,29.53,10.0,West,5.8,11.5,N/A,,Clear,260,2014-02-15 10:15:00
3:35 AM,21.2,17.6,86,29.53,10.0,West,8.1,-,N/A,,Clear,280,2014-02-15 10:35:00
3:55 AM,21.2,19.4,93,29.53,10.0,West,6.9,-,N/A,,Mostly Cloudy,260,2014-02-15 10:55:00
4:15 AM,21.2,17.6,86,29.54,10.0,West,6.9,-,N/A,,Mostly Cloudy,270,2014-02-15 11:15:00
4:35 AM,24.8,21.2,86,29.55,10.0,NW,10.4,-,N/A,,Mostly Cloudy,310,2014-02-15 11:35:00
4:55 AM,26.6,23.0,86,29.57,10.0,WNW,12.7,-,N/A,,Overcast,300,2014-02-15 11:55:00
5:15 AM,28.4,23.0,80,29.58,10.0,NW,15.0,-,N/A,,Overcast,310,2014-02-15 12:15:00
5:35 AM,28.4,23.0,80,29.60,10.0,WNW,15.0,-,N/A,,Overcast,300,2014-02-15 12:35:00
5:55 AM,28.4,23.0,80,29.60,10.0,NW,15.0,-,N/A,,Overcast,310,2014-02-15 12:55:00
6:15 AM,26.6,23.0,86,29.62,10.0,NW,11.5,17.3,N/A,,Overcast,310,2014-02-15 13:15:00
6:35 AM,28.4,24.8,86,29.63,10.0,NW,11.5,-,N/A,,Overcast,310,2014-02-15 13:35:00
6:55 AM,28.4,24.8,86,29.65,10.0,NW,10.4,-,N/A,,Overcast,310,2014-02-15 13:55:00
7:15 AM,30.2,26.6,86,29.66,10.0,WNW,8.1,-,N/A,,Overcast,300,2014-02-15 14:15:00
7:35 AM,30.2,26.6,86,29.68,9.0,NW,11.5,-,N/A,,Mostly Cloudy,310,2014-02-15 14:35:00
7:55 AM,30.2,26.6,86,29.70,6.0,NW,11.5,-,N/A,Rain,Freezing Rain,310,2014-02-15 14:55:00
8:15 AM,32.0,28.4,87,29.72,7.0,NW,13.8,-,N/A,Rain,Light Rain,310,2014-02-15 15:15:00
8:35 AM,32.0,28.4,87,29.72,9.0,NW,17.3,-,N/A,,Overcast,320,2014-02-15 15:35:00
8:55 AM,32.0,28.4,87,29.74,10.0,NW,13.8,-,N/A,,Overcast,320,2014-02-15 15:55:00
9:15 AM,30.2,24.8,80,29.75,10.0,North,17.3,-,N/A,,Overcast,360,2014-02-15 16:15:00
9:35 AM,26.6,21.2,80,29.78,10.0,North,19.6,-,N/A,,Overcast,360,2014-02-15 16:35:00
9:55 AM,23.0,17.6,80,29.80,9.0,North,20.7,26.5,N/A,,Overcast,360,2014-02-15 16:55:00
10:15 AM,21.2,15.8,80,29.83,2.5,North,15.0,-,N/A,,Haze,360,2014-02-15 17:15:00
10:35 AM,19.4,14.0,80,29.86,3.0,North,9.2,15.0,N/A,,Haze,10,2014-02-15 17:35:00
10:55 AM,19.4,14.0,80,29.87,4.0,North,12.7,-,N/A,,Haze,10,2014-02-15 17:55:00
11:15 AM,19.4,14.0,80,29.88,5.0,North,12.7,-,N/A,,Haze,360,2014-02-15 18:15:00
11:35 AM,19.4,14.0,80,29.89,6.0,North,12.7,20.7,N/A,,Haze,350,2014-02-15 18:35:00
11:55 AM,19.4,14.0,80,29.90,5.0,North,13.8,-,N/A,,Haze,350,2014-02-15 18:55:00
12:15 PM,19.4,14.0,80,29.91,4.0,North,11.5,17.3,N/A,,Haze,350,2014-02-15 19:15:00
12:35 PM,19.4,14.0,80,29.92,2.0,North,13.8,-,N/A,,Haze,350,2014-02-15 19:35:00
12:55 PM,19.4,14.0,80,29.93,3.0,North,13.8,-,N/A,,Haze,360,2014-02-15 19:55:00
1:15 PM,17.6,12.2,79,29.94,3.0,North,11.5,17.3,N/A,,Haze,10,2014-02-15 20:15:00
1:35 PM,17.6,12.2,79,29.95,3.0,North,11.5,-,N/A,,Haze,350,2014-02-15 20:35:00
1:55 PM,17.6,12.2,79,29.96,8.0,North,13.8,-,N/A,,Overcast,350,2014-02-15 20:55:00
2:15 PM,17.6,10.4,73,29.98,8.0,North,12.7,-,N/A,,Overcast,10,2014-02-15 21:15:00
2:35 PM,17.6,10.4,73,29.99,9.0,North,12.7,-,N/A,,Overcast,360,2014-02-15 21:35:00
2:55 PM,17.6,10.4,73,30.00,9.0,North,11.5,-,N/A,,Overcast,10,2014-02-15 21:55:00
3:15 PM,15.8,8.6,73,30.01,10.0,North,12.7,-,N/A,,Overcast,360,2014-02-15 22:15:00
3:35 PM,15.8,8.6,73,30.01,10.0,North,10.4,16.1,N/A,,Overcast,10,2014-02-15 22:35:00
3:55 PM,15.8,6.8,68,30.02,10.0,NNE,15.0,-,N/A,,Overcast,30,2014-02-15 22:55:00
4:15 PM,14.0,6.8,73,30.03,10.0,NNE,10.4,18.4,N/A,,Overcast,20,2014-02-15 23:15:00
4:35 PM,14.0,6.8,73,30.04,9.0,NNE,16.1,-,N/A,,Overcast,30,2014-02-15 23:35:00
4:55 PM,12.2,6.8,79,30.05,10.0,NNE,15.0,-,N/A,,Overcast,30,2014-02-15 23:55:00
5:15 PM,12.2,6.8,79,30.05,5.0,NE,10.4,-,N/A,,Haze,50,2014-02-16 00:15:00
5:35 PM,12.2,6.8,79,30.06,2.5,NE,10.4,-,N/A,,Haze,50,2014-02-16 00:35:00
5:55 PM,12.2,5.0,73,30.07,9.0,ENE,9.2,-,N/A,,Overcast,60,2014-02-16 00:55:00
6:15 PM,12.2,6.8,79,30.08,10.0,ENE,9.2,-,N/A,,Overcast,70,2014-02-16 01:15:00
6:35 PM,12.2,5.0,73,30.07,10.0,East,8.1,-,N/A,,Overcast,80,2014-02-16 01:35:00
6:55 PM,10.4,5.0,79,30.08,10.0,East,6.9,-,N/A,,Overcast,90,2014-02-16 01:55:00
7:15 PM,10.4,5.0,79,30.10,10.0,ESE,5.8,-,N/A,,Overcast,110,2014-02-16 02:15:00
7:35 PM,10.4,5.0,79,30.08,10.0,East,6.9,-,N/A,,Overcast,100,2014-02-16 02:35:00
7:55 PM,10.4,5.0,79,30.07,10.0,ESE,6.9,-,N/A,,Overcast,110,2014-02-16 02:55:00
8:15 PM,10.4,5.0,79,30.04,10.0,East,8.1,-,N/A,,Overcast,80,2014-02-16 03:15:00
8:35 PM,10.4,5.0,79,30.05,10.0,East,6.9,-,N/A,,Overcast,90,2014-02-16 03:35:00
8:55 PM,10.4,5.0,79,30.04,10.0,East,8.1,-,N/A,,Overcast,100,2014-02-16 03:55:00
9:15 PM,10.4,5.0,79,30.04,10.0,ESE,8.1,-,N/A,,Overcast,120,2014-02-16 04:15:00
9:35 PM,10.4,5.0,79,30.05,10.0,SE,9.2,-,N/A,,Overcast,140,2014-02-16 04:35:00
9:55 PM,10.4,5.0,79,30.05,8.0,SE,8.1,-,N/A,,Overcast,140,2014-02-16 04:55:00
10:15 PM,10.4,5.0,79,30.06,9.0,SSE,9.2,-,N/A,,Overcast,150,2014-02-16 05:15:00
10:35 PM,10.4,5.0,79,30.04,10.0,SE,8.1,-,N/A,,Overcast,140,2014-02-16 05:35:00
10:55 PM,10.4,5.0,79,30.03,10.0,SE,9.2,-,N/A,,Overcast,140,2014-02-16 05:55:00
11:15 PM,10.4,5.0,79,30.02,10.0,SE,8.1,-,N/A,,Overcast,130,2014-02-16 06:15:00
11:35 PM,10.4,5.0,79,30.02,10.0,SE,10.4,-,N/A,,Overcast,130,2014-02-16 06:35:00
11:55 PM,10.4,5.0,79,30.01,10.0,SSE,9.2,-,N/A,,Overcast,150,2014-02-16 06:55:00